Change the Weather History Date:

Sunday, May 26, 2013

  Actual Average (KPAH) Record (KPAH)
Temperature  
Mean Temperature 68 °F 70 °F  
Max Temperature 80 °F 81 °F 96 °F (1953)
Min Temperature 57 °F 59 °F 42 °F (1961)
Degree Days  
Heating Degree Days 0 1  
Month to date heating degree days 60  
Since 1 July heating degree days 4124  
Cooling Degree Days 4 6  
Month to date cooling degree days 97  
Year to date cooling degree days 139  
Growing Degree Days 18 (Base 50)    
Moisture  
Dew Point 56 °F    
Average Humidity 66    
Maximum Humidity 94    
Minimum Humidity 39    
Precipitation  
Precipitation 0.00 in 0.14 in 2.10 in (2008)
Month to date precipitation 4.20  
Year to date precipitation 20.48  
Snow  
Snow 0.00 in 0.00 in 0.00 in (2002)
Month to date snowfall 0.0  
Since 1 July snowfall 9.1  
Snow Depth -    
Sea Level Pressure  
Sea Level Pressure 30.17 in    
Wind  
Wind Speed 4 mph (SSE)    
Max Wind Speed 9 mph    
Max Gust Speed -    
Visibility 10 miles    
Events      
T = Trace of Precipitation, MM = Missing Value Source: NWS Daily Summary

Daily Weather History Graph

Daily Weather History Graph

Search for Another Location

Airport or City:

Trip Planner

Search our weather history database for the weather conditions in past years. The results will help you decide how hot, cold, wet, or windy it might be!

Date:

Astronomy

May. 26, 2013 Rise Set
Actual Time 5:38 AM CDT 8:02 PM CDT
Civil Twilight 5:09 AM CDT 8:32 PM CDT
Nautical Twilight 4:32 AM CDT 9:09 PM CDT
Astronomical Twilight 3:52 AM CDT 9:49 PM CDT
Moon 9:50 PM CDT (5/26) 7:07 AM CDT (5/26)
Length of Visible Light 15h 23m
Length of Day
14h 23m
Waning Gibbous, 96% of the Moon is Illuminated
May 26
Waning Gibbous
May 31
Last Quarter
Jun 8
New
Jun 16
First Quarter
Jun 23
Full

Hourly Weather History & Observations

Time (CDT) Temp. Heat Index Dew Point Humidity Pressure Visibility Wind Dir Wind Speed Gust Speed Precip Events Conditions
12:15 AM 57.2 °F - 53.6 °F 88% 30.20 in 10.0 mi ENE 4.6 mph - N/A   Overcast
12:35 AM 59.0 °F - 55.4 °F 88% 30.20 in 10.0 mi Calm Calm - N/A   Overcast
12:55 AM 59.0 °F - 53.6 °F 82% 30.19 in 10.0 mi Calm Calm - N/A   Overcast
1:15 AM 57.2 °F - 55.4 °F 94% 30.19 in 10.0 mi East 4.6 mph - N/A   Overcast
1:35 AM 57.2 °F - 55.4 °F 94% 30.19 in 10.0 mi Calm Calm - N/A   Overcast
1:55 AM 59.0 °F - 53.6 °F 82% 30.19 in 10.0 mi Calm Calm - N/A   Overcast
2:15 AM 59.0 °F - 55.4 °F 88% 30.19 in 10.0 mi SE 4.6 mph - N/A   Overcast
2:35 AM 59.0 °F - 55.4 °F 88% 30.19 in 10.0 mi SE 3.5 mph - N/A   Overcast
2:55 AM 57.2 °F - 55.4 °F 94% 30.19 in 10.0 mi East 3.5 mph - N/A   Overcast
3:15 AM 59.0 °F - 55.4 °F 88% 30.19 in 10.0 mi ESE 3.5 mph - N/A   Overcast
3:35 AM 59.0 °F - 55.4 °F 88% 30.20 in 10.0 mi Calm Calm - N/A   Overcast
3:55 AM 59.0 °F - 55.4 °F 88% 30.19 in 10.0 mi ESE 4.6 mph - N/A   Overcast
4:15 AM 59.0 °F - 55.4 °F 88% 30.19 in 10.0 mi ESE 3.5 mph - N/A   Overcast
4:35 AM 57.2 °F - 55.4 °F 94% 30.19 in 10.0 mi East 4.6 mph - N/A   Overcast
4:55 AM 57.2 °F - 55.4 °F 94% 30.21 in 10.0 mi SE 3.5 mph - N/A   Overcast
5:15 AM 57.2 °F - 55.4 °F 94% 30.20 in 10.0 mi SE 5.8 mph - N/A   Overcast
5:35 AM 57.2 °F - 55.4 °F 94% 30.21 in 10.0 mi SE 4.6 mph - N/A   Mostly Cloudy
5:55 AM 57.2 °F - 55.4 °F 94% 30.21 in 10.0 mi SE 5.8 mph - N/A   Partly Cloudy
6:15 AM 57.2 °F - 55.4 °F 94% 30.21 in 10.0 mi SE 4.6 mph - N/A   Clear
6:35 AM 59.0 °F - 53.6 °F 82% 30.21 in 10.0 mi SE 4.6 mph - N/A   Clear
6:55 AM 59.0 °F - 53.6 °F 82% 30.20 in 10.0 mi SE 6.9 mph - N/A   Clear
7:15 AM 60.8 °F - 55.4 °F 82% 30.20 in 10.0 mi SE 4.6 mph - N/A   Clear
7:35 AM 62.6 °F - 55.4 °F 77% 30.20 in 10.0 mi SE 3.5 mph - N/A   Clear
7:55 AM 64.4 °F - 53.6 °F 68% 30.20 in 10.0 mi SE 3.5 mph - N/A   Clear
8:15 AM 66.2 °F - 53.6 °F 64% 30.21 in 10.0 mi ESE 4.6 mph - N/A   Clear
8:35 AM 68.0 °F - 53.6 °F 60% 30.22 in 10.0 mi SSE 3.5 mph - N/A   Clear
8:55 AM 68.0 °F - 53.6 °F 60% 30.22 in 10.0 mi South 4.6 mph - N/A   Clear
9:15 AM 69.8 °F - 55.4 °F 60% 30.22 in 10.0 mi South 6.9 mph - N/A   Clear
9:35 AM 71.6 °F - 55.4 °F 57% 30.22 in 10.0 mi South 9.2 mph - N/A   Clear
9:55 AM 73.4 °F - 57.2 °F 57% 30.22 in 10.0 mi South 6.9 mph - N/A   Clear
10:15 AM 73.4 °F - 55.4 °F 53% 30.22 in 10.0 mi SE 4.6 mph - N/A   Clear
10:35 AM 73.4 °F - 55.4 °F 53% 30.22 in 10.0 mi SSW 5.8 mph - N/A   Clear
10:55 AM 75.2 °F - 55.4 °F 50% 30.21 in 10.0 mi SSW 5.8 mph - N/A   Clear
11:15 AM 75.2 °F - 55.4 °F 50% 30.22 in 10.0 mi WSW 6.9 mph - N/A   Clear
11:35 AM 77.0 °F - 53.6 °F 44% 30.21 in 10.0 mi South 4.6 mph - N/A   Clear
11:55 AM 75.2 °F - 55.4 °F 50% 30.22 in 10.0 mi SSW 5.8 mph - N/A   Clear
12:15 PM 77.0 °F - 55.4 °F 47% 30.21 in 10.0 mi SW 4.6 mph - N/A   Clear
12:35 PM 77.0 °F - 53.6 °F 44% 30.20 in 10.0 mi SSW 6.9 mph - N/A   Clear
12:55 PM 78.8 °F - 53.6 °F 42% 30.20 in 10.0 mi SW 4.6 mph - N/A   Clear
1:15 PM 78.8 °F - 55.4 °F 44% 30.20 in 10.0 mi South 5.8 mph - N/A   Clear
1:35 PM 78.8 °F - 55.4 °F 44% 30.19 in 10.0 mi South 5.8 mph - N/A   Clear
1:55 PM 80.6 °F 80.5 °F 55.4 °F 42% 30.18 in 10.0 mi South 6.9 mph - N/A   Mostly Cloudy
2:15 PM 80.6 °F 80.3 °F 53.6 °F 39% 30.18 in 10.0 mi SW 5.8 mph - N/A   Scattered Clouds
2:35 PM 78.8 °F - 53.6 °F 42% 30.17 in 10.0 mi Calm Calm - N/A   Clear
2:55 PM 80.6 °F 80.8 °F 57.2 °F 45% 30.17 in 10.0 mi South 3.5 mph - N/A   Clear
3:15 PM 80.6 °F 80.8 °F 57.2 °F 45% 30.16 in 10.0 mi SSW 6.9 mph - N/A   Clear
3:35 PM 80.6 °F 80.5 °F 55.4 °F 42% 30.15 in 10.0 mi South 4.6 mph - N/A   Clear
3:55 PM 80.6 °F 80.8 °F 57.2 °F 45% 30.15 in 10.0 mi SE 3.5 mph - N/A   Clear
4:15 PM 80.6 °F 80.8 °F 57.2 °F 45% 30.14 in 10.0 mi SE 4.6 mph - N/A   Clear
4:35 PM 80.6 °F 80.8 °F 57.2 °F 45% 30.14 in 10.0 mi South 5.8 mph - N/A   Clear
4:55 PM 80.6 °F 81.1 °F 59.0 °F 48% 30.13 in 10.0 mi South 5.8 mph - N/A   Clear
5:15 PM 78.8 °F - 57.2 °F 47% 30.12 in 10.0 mi SSE 6.9 mph - N/A   Clear
5:35 PM 78.8 °F - 57.2 °F 47% 30.11 in 10.0 mi SSE 8.1 mph - N/A   Clear
5:55 PM 78.8 °F - 57.2 °F 47% 30.11 in 10.0 mi SSE 4.6 mph - N/A   Clear
6:15 PM 77.0 °F - 59.0 °F 54% 30.10 in 10.0 mi SSE 3.5 mph - N/A   Clear
6:35 PM 77.0 °F - 59.0 °F 54% 30.10 in 10.0 mi SE 4.6 mph - N/A   Clear
6:55 PM 75.2 °F - 59.0 °F 57% 30.11 in 10.0 mi Calm Calm - N/A   Clear
7:15 PM 75.2 °F - 62.6 °F 65% 30.11 in 10.0 mi Calm Calm - N/A   Clear
7:35 PM 73.4 °F - 60.8 °F 65% 30.11 in 10.0 mi SE 3.5 mph - N/A   Clear
7:55 PM 71.6 °F - 59.0 °F 64% 30.11 in 10.0 mi SE 3.5 mph - N/A   Clear
8:15 PM 71.6 °F - 59.0 °F 64% 30.11 in 10.0 mi Calm Calm - N/A   Clear
8:35 PM 69.8 °F - 57.2 °F 64% 30.11 in 10.0 mi Calm Calm - N/A   Clear
8:55 PM 68.0 °F - 57.2 °F 68% 30.11 in 10.0 mi SE 3.5 mph - N/A   Clear
9:15 PM 68.0 °F - 57.2 °F 68% 30.11 in 10.0 mi SSE 3.5 mph - N/A   Clear
9:35 PM 68.0 °F - 57.2 °F 68% 30.12 in 10.0 mi SSE 3.5 mph - N/A   Clear
9:55 PM 66.2 °F - 57.2 °F 73% 30.12 in 10.0 mi SSE 3.5 mph - N/A   Clear
10:15 PM 66.2 °F - 57.2 °F 73% 30.12 in 10.0 mi South 4.6 mph - N/A   Clear
10:35 PM 68.0 °F - 57.2 °F 68% 30.11 in 10.0 mi South 5.8 mph - N/A   Clear
10:55 PM 68.0 °F - 57.2 °F 68% 30.11 in 10.0 mi South 5.8 mph - N/A   Clear
11:15 PM 68.0 °F - 55.4 °F 64% 30.10 in 10.0 mi South 5.8 mph - N/A   Clear
11:35 PM 68.0 °F - 55.4 °F 64% 30.10 in 10.0 mi South 5.8 mph - N/A   Clear
11:55 PM 68.0 °F - 55.4 °F 64% 30.10 in 10.0 mi South 5.8 mph - N/A   Clear